EHI
9 9 11 10 7 5 5 5 7 6 2 1 1 1 1 1 3 7 9 10 10 10 10 8 6 5 4 2 1 1 1 2 4 4 3 4 6 6 6 5 2 1 0
10 10 10 10 9 7 6 6 6 5 3 2 3 3 2 2 4 6 7 8 10 12 13 11 7 4 4 3 1 1 1 2 3 4 3 4 6 7 6 4 3 2 1
11 10 10 10 11 10 9 8 7 5 4 4 4 3 3 4 5 5 5 5 6 10 13 12 8 5 4 4 2 1 1 1 3 4 4 5 8 9 7 5 4 3 3
11 11 10 11 12 12 11 9 7 6 5 4 3 3 5 7 6 4 4 4 3 4 7 9 8 6 5 5 4 3 1 1 3 5 4 5 8 9 7 6 5 3 2
12 12 10 10 11 11 11 9 8 7 5 3 1 3 7 10 8 4 3 3 2 1 2 4 6 6 5 5 6 5 3 3 5 5 5 5 7 8 8 6 5 2 1
13 12 10 10 11 11 10 9 8 6 3 1 0 2 5 8 7 5 3 3 2 1 1 2 3 4 4 4 4 4 3 4 6 6 4 5 7 8 8 6 4 1 0
11 11 10 11 14 14 11 9 7 5 2 1 0 1 2 3 4 4 4 3 2 1 0 0 1 1 2 2 2 2 2 4 5 5 5 5 6 6 7 5 3 1 0
10 10 11 12 14 15 11 8 7 5 3 1 1 1 0 1 1 2 3 3 2 1 0 0 0 0 1 1 1 1 2 3 4 5 5 5 5 5 5 4 2 0 0
9 9 10 11 12 11 10 8 7 7 5 3 2 1 0 0 0 1 2 2 1 0 0 0 0 0 1 1 1 1 1 2 3 5 6 6 6 6 6 4 2 1 0
8 8 8 9 9 8 8 7 7 6 5 4 2 1 0 0 0 0 1 1 1 0 0 0 0 1 1 1 2 1 0 0 2 4 6 6 6 6 6 5 4 2 1
8 7 7 7 7 6 6 6 5 4 3 2 2 1 2 2 1 0 0 0 0 0 0 1 2 3 3 3 3 2 1 0 0 2 4 5 5 6 6 5 4 2 1
7 6 6 7 5 4 4 5 5 2 1 1 1 2 4 4 2 0 0 0 0 0 0 1 3 5 5 4 4 2 1 0 0 0 1 2 3 4 4 4 3 2 1
7 6 6 6 5 3 3 4 4 3 1 0 0 2 4 5 3 1 0 0 0 0 0 1 3 4 4 4 3 1 0 0 0 0 0 0 1 2 3 3 3 2 1
8 7 7 6 5 4 4 4 3 2 2 1 0 1 3 4 2 1 0 0 0 0 0 1 2 3 3 4 3 1 0 0 0 0 0 0 0 1 2 2 2 1 0
9 8 8 7 6 6 5 5 3 2 1 2 1 1 2 3 2 0 0 0 0 0 0 0 2 3 4 3 2 1 0 0 0 0 0 0 0 0 1 1 1 0 0
11 9 7 6 5 5 4 4 3 2 1 2 3 1 1 2 1 0 0 0 0 0 0 1 2 3 4 2 0 1 1 1 0 0 0 0 0 0 0 0 0 0 0
13 9 6 5 3 2 2 2 2 2 1 2 3 2 1 1 1 1 0 0 0 0 0 2 3 4 3 2 1 2 2 1 0 0 0 0 0 0 0 0 0 0 0
12 9 6 5 2 0 1 1 2 1 1 1 2 2 1 0 1 2 1 0 0 0 1 2 2 3 3 3 3 3 2 1 0 0 0 0 0 0 0 0 0 0 0
11 8 5 4 2 0 0 1 1 1 0 0 0 0 0 0 1 3 2 0 0 1 2 2 2 3 3 3 3 2 1 0 0 0 0 0 0 0 0 0 0 0 0
9 6 4 3 2 1 0 1 1 1 0 0 1 1 1 0 1 2 1 1 0 1 2 2 2 3 3 1 1 1 0 0 0 0 0 0 0 0 0 0 0 0 0
7 6 4 3 2 1 0 1 0 0 0 0 1 2 2 1 0 0 1 1 0 0 1 1 2 2 2 1 0 0 0 0 0 0 0 0 0 0 0 0 0 0 0
7 6 5 2 1 0 0 0 0 0 0 0 1 1 1 1 0 0 0 0 0 0 0 1 1 1 1 1 0 0 0 0 0 0 0 0 0 0 0 0 0 0 0
9 8 6 3 1 0 0 0 0 0 0 0 1 1 1 1 0 0 0 0 0 0 0 1 1 0 0 0 0 0 0 0 0 0 0 0 0 0 0 0 0 0 0
13 12 9 6 2 0 0 0 0 0 0 0 0 1 2 2 1 0 0 0 0 0 0 0 0 0 0 0 0 0 0 0 0 0 0 0 0 0 0 0 0 0 0
14 14 11 8 5 2 1 0 0 0 0 0 0 1 2 2 1 0 0 0 0 0 0 0 0 0 0 0 0 0 0 0 0 0 0 0 0 0 0 0 0 0 0
14 13 11 9 7 4 2 0 0 0 0 0 0 0 1 1 0 0 0 0 0 0 0 0 0 0 0 0 0 0 0 0 0 0 0 0 0 0 0 0 0 0 0
Wind_Speed
1 1 1 0 0 0 1 1 1 1 1 1 2 2 1 0 1 2 3 9 9 9 9 9 8 8 7 7 6 6 6 6 6 6 6 6 6 6 6 6 6 6 6
1 1 1 0 0 0 0 1 1 0 1 1 0 0 1 1 1 2 3 6 8 9 9 9 8 8 8 7 7 7 6 6 6 6 6 6 6 6 6 6 6 6 6
1 1 1 1 0 1 1 1 1 0 1 1 1 2 1 2 1 1 2 3 5 7 8 8 8 8 8 8 7 8 8 8 7 8 7 7 7 7 6 6 6 6 6
1 1 1 1 0 1 0 0 0 0 0 0 1 1 1 1 2 2 2 2 3 4 6 8 8 8 9 9 9 9 8 8 8 8 8 8 7 7 7 7 6 6 6
1 1 1 1 1 1 0 1 1 0 1 1 1 2 1 2 2 3 2 2 3 4 4 7 9 9 9 9 9 9 9 8 8 8 9 8 8 7 7 7 7 6 6
2 1 1 1 1 1 0 0 0 1 1 2 3 1 1 2 2 2 3 3 3 4 4 5 5 6 9 9 9 9 9 9 8 8 8 8 8 7 7 6 6 6 6
2 1 1 1 2 1 1 2 1 1 2 2 1 1 1 3 3 2 2 2 2 3 3 4 4 3 5 9 10 10 9 10 9 9 8 8 8 7 7 7 6 6 6
3 3 2 2 1 1 2 2 2 1 2 2 1 1 1 2 1 3 2 3 3 2 3 5 4 4 4 3 7 11 10 9 10 10 9 8 8 8 8 8 7 7 6
3 2 3 2 2 2 2 2 2 2 1 2 2 1 1 1 0 2 2 2 3 2 2 2 4 4 5 4 4 9 10 9 10 10 9 8 9 9 9 9 8 8 7
3 3 3 3 2 2 2 3 2 1 2 2 1 1 1 1 1 1 1 2 2 3 3 3 3 3 4 3 4 7 9 9 9 9 9 9 10 10 10 9 9 9 9
3 3 3 3 2 2 2 2 2 2 2 2 1 1 2 2 2 2 1 1 2 2 2 3 3 3 3 4 4 7 10 10 10 10 9 9 9 10 10 10 10 10 10
2 3 3 3 3 3 2 3 2 3 2 2 1 1 1 1 2 1 2 2 2 2 3 2 2 2 3 3 5 7 9 9 9 9 9 9 9 9 9 10 11 11 10
2 3 3 3 3 3 3 3 3 3 3 3 3 2 2 2 1 1 1 2 2 2 2 2 2 2 3 2 3 7 8 9 9 9 9 9 9 9 9 9 10 10 9
2 3 3 3 3 4 4 3 2 4 3 3 4 3 2 2 2 2 2 1 2 2 2 2 1 1 1 2 4 6 5 8 8 9 9 9 9 9 9 9 9 9 9
3 3 4 4 4 4 3 3 3 3 2 3 3 3 3 2 2 2 2 2 2 3 3 2 1 1 1 1 4 3 3 7 8 9 10 10 9 9 9 9 9 9 9
2 3 3 3 4 3 3 3 3 3 3 3 3 3 3 2 2 2 2 2 2 3 3 1 1 1 1 2 3 3 3 6 8 10 10 11 11 10 10 10 10 10 9
1 2 3 3 4 4 4 4 4 4 4 4 4 4 3 3 2 2 2 2 2 2 3 2 1 1 2 2 2 3 2 4 5 10 11 11 11 11 10 10 10 10 10
2 2 2 3 4 4 3 4 5 4 4 4 4 3 3 3 3 3 2 2 2 2 2 3 2 2 3 3 3 4 3 4 3 7 11 11 11 11 11 11 11 10 10
2 2 2 3 3 3 3 3 3 3 3 3 3 3 3 3 3 3 3 2 2 3 2 2 3 2 2 2 2 3 3 2 3 4 8 10 11 11 11 11 11 11 10
2 2 2 3 3 3 3 3 3 3 3 3 3 3 3 3 3 3 3 2 2 2 2 2 2 2 2 2 1 2 2 2 2 3 3 4 7 9 9 10 11 11 11
2 2 2 2 2 2 2 2 3 3 3 2 2 3 3 3 3 3 3 2 2 2 2 2 3 2 2 1 2 2 2 1 2 2 1 2 3 4 5 7 9 10 10
2 2 2 2 2 2 1 2 2 2 3 3 3 3 3 3 3 4 5 3 3 3 3 3 2 2 2 2 1 2 1 1 2 1 1 2 2 2 3 4 7 10 10
2 2 2 2 2 2 3 3 3 2 2 3 3 2 3 2 1 1 3 5 5 6 6 4 3 3 3 2 2 2 2 2 2 2 1 3 2 2 2 3 6 8 9
2 2 2 2 2 2 3 3 2 2 2 2 2 2 2 1 1 1 2 3 3 3 4 4 3 3 3 2 2 3 3 2 3 2 2 2 2 2 2 2 4 6 7
2 3 2 2 2 2 4 4 3 2 2 2 2 2 2 2 1 1 1 1 1 2 2 2 3 3 4 4 2 1 2 2 3 2 1 1 2 2 2 1 3 6 7
3 3 3 3 3 3 5 5 4 2 2 2 2 1 2 2 2 1 1 1 2 2 3 2 2 4 4 4 4 3 2 3 2 2 1 1 2 1 2 2 2 3 4
Wind_Direction
101 90 68 21 239 181 202 222 247 187 208 214 215 210 159 218 230 153 143 158 159 160 166 172 177 182 186 184 183 182 180 180 184 185 186 186 188 186 185 189 190 187 187
110 99 146 280 356 352 347 271 231 230 202 224 255 280 186 221 195 148 155 160 165 168 173 178 181 183 187 189 188 188 190 189 188 192 192 191 192 191 190 191 195 190 189
119 145 174 176 70 266 264 282 289 174 214 215 199 232 210 198 178 161 168 165 170 176 177 180 182 184 189 192 196 200 201 200 200 197 196 198 198 195 196 198 200 199 196
159 216 174 134 235 260 232 223 270 357 294 284 248 242 218 180 172 191 200 187 169 170 178 182 184 188 192 195 201 206 208 208 206 203 198 199 199 195 195 197 201 202 202
156 209 174 169 225 228 221 236 109 331 278 271 267 227 209 197 182 200 193 201 183 171 172 183 191 195 198 202 207 211 212 212 207 203 199 199 199 195 195 197 201 204 206
177 198 195 182 232 194 155 118 250 253 261 248 260 255 222 205 203 189 191 201 188 188 181 177 188 201 205 205 207 210 212 214 211 206 203 203 203 199 199 200 203 208 208
182 222 205 192 223 178 184 196 201 231 242 239 247 271 235 214 195 180 193 182 193 199 190 176 183 192 200 207 208 209 210 213 210 209 208 205 204 202 201 201 203 208 213
192 206 195 202 187 176 202 210 209 221 229 217 216 241 234 218 220 207 183 185 206 205 203 201 194 195 198 191 198 206 207 209 211 209 209 207 206 204 201 202 204 205 208
200 217 198 204 193 193 190 211 225 221 245 246 210 214 240 222 223 203 208 202 194 196 212 208 203 200 199 191 192 202 202 206 210 212 212 211 211 208 207 205 207 209 210
200 212 209 205 215 215 193 215 198 228 237 253 230 207 212 154 227 248 241 221 200 195 209 232 218 204 197 191 186 190 198 201 207 212 217 218 216 213 211 211 212 213 216
205 208 207 200 212 225 202 203 210 227 239 255 253 221 219 216 227 220 254 263 253 225 214 220 218 204 199 193 185 192 192 200 206 213 217 219 220 218 217 216 218 219 221
205 204 209 201 211 222 209 212 214 228 235 252 265 255 241 223 225 228 240 251 252 249 233 222 212 202 204 191 197 191 188 195 204 210 214 215 218 218 220 221 222 222 223
212 203 205 196 213 215 217 218 209 223 229 232 240 251 253 254 240 231 226 266 281 283 262 239 228 206 208 170 180 181 189 192 201 209 212 213 214 217 219 223 225 225 225
210 199 202 198 208 209 213 203 216 228 215 220 241 239 248 257 257 252 239 245 273 275 262 251 241 213 233 171 178 182 189 195 199 207 211 213 216 217 219 222 225 224 225
214 200 201 205 209 210 210 202 219 228 207 213 232 229 232 243 241 254 249 223 226 260 264 256 261 226 212 190 173 192 184 197 204 211 210 210 214 217 220 221 222 221 222
222 202 200 206 209 206 206 205 221 219 208 213 226 225 230 244 238 239 242 236 229 245 266 254 252 237 245 239 208 219 204 194 206 213 211 211 212 214 217 220 219 219 221
198 205 200 207 210 208 207 208 219 217 218 219 224 222 223 239 249 260 247 233 239 248 262 270 257 246 250 248 232 238 217 206 206 209 211 211 212 213 215 217 217 218 220
204 215 210 211 218 215 208 212 225 226 222 221 222 224 224 229 231 253 258 255 251 246 242 257 263 258 255 230 224 230 237 232 222 208 208 210 212 213 214 216 217 217 218
210 214 211 218 228 225 212 216 223 236 227 221 221 220 223 222 234 242 248 248 256 262 242 241 256 253 248 232 229 239 241 247 247 226 206 210 213 213 213 215 216 216 216
204 215 226 221 222 227 224 222 221 236 237 228 223 220 223 215 224 245 250 245 252 268 264 257 257 253 247 239 224 231 245 242 250 247 223 207 205 210 214 215 216 217 215
208 204 223 224 232 228 238 231 230 233 233 235 237 229 220 206 212 220 241 233 242 248 256 255 252 249 246 243 241 232 231 230 250 228 224 226 202 206 214 221 220 218 215
204 206 216 223 234 240 181 193 224 248 242 236 238 232 224 204 216 218 225 231 231 240 256 260 262 259 256 255 262 258 240 259 271 263 267 273 237 211 207 202 208 209 211
196 209 222 222 218 212 182 188 214 240 242 239 236 230 253 252 211 237 225 228 241 244 237 243 258 264 269 271 277 280 278 273 262 256 267 269 261 255 234 213 197 201 206
198 211 228 231 216 211 185 188 214 229 249 241 239 240 229 242 274 279 253 232 228 247 235 231 243 261 268 271 254 249 252 261 261 263 224 246 257 251 252 188 193 195 203
204 218 219 227 213 185 181 189 191 233 225 237 241 242 199 180 235 281 259 259 270 277 267 241 225 246 258 265 257 258 252 240 267 270 240 241 255 259 250 229 214 205 202
215 221 227 236 221 187 182 185 188 226 234 233 216 196 157 151 135 143 254 258 272 290 311 302 271 261 249 247 228 212 235 251 259 270 243 247 258 266 270 238 202 202 216